• In Österreich
  • Länderverzeichnis
  • Für 7 Tage
  • Wassertemperatur
  • Satellitenkarten
  • Wetterkarte
  • News
  • Widgets
  • user-avatar
    Anmelden

    Stündliche Wetter Kozienice

    Heute, 14 August, Dienstag

    Zeit Temperatur Niederschläge Wind Luftdruck Luftfeuchtigkeit
    00:00 +21°C° 0 mm 2 m/S 747 mmHg 70%
    01:00 +21°C° 0 mm 2 m/S 747 mmHg 73%
    02:00 +21°C° 0 mm 2 m/S 747 mmHg 76%
    03:00 +20°C° 0 mm 2 m/S 747 mmHg 78%
    04:00 +20°C° 0 mm 2 m/S 747 mmHg 81%
    05:00 +21°C° 0 mm 2 m/S 747 mmHg 76%
    06:00 +24°C° 0 mm 2 m/S 747 mmHg 72%
    07:00 +26°C° 0 mm 2 m/S 747 mmHg 65%
    08:00 +27°C° 0 mm 2 m/S 747 mmHg 59%
    09:00 +29°C° 0 mm 2 m/S 747 mmHg 54%
    10:00 +31°C° 0 mm 2 m/S 747 mmHg 49%
    11:00 +31°C° 0 mm 2 m/S 747 mmHg 47%
    12:00 +31°C° 0 mm 3 m/S 747 mmHg 46%
    13:00 +33°C° 0 mm 3 m/S 747 mmHg 45%
    14:00 +30°C° 0,4 mm 3 m/S 747 mmHg 51%
    15:00 +29°C° 0,4 mm 3 m/S 747 mmHg 57%
    16:00 +28°C° 0,4 mm 3 m/S 747 mmHg 63%
    17:00 +27°C° 0,7 mm 3 m/S 747 mmHg 68%
    18:00 +25°C° 0,7 mm 2 m/S 747 mmHg 73%
    19:00 +24°C° 0,7 mm 2 m/S 747 mmHg 78%
    20:00 +23°C° 0,3 mm 2 m/S 748 mmHg 79%
    21:00 +23°C° 0,3 mm 2 m/S 748 mmHg 80%
    22:00 +21°C° 0,3 mm 2 m/S 748 mmHg 82%
    23:00 +20°C° 0 mm 2 m/S 749 mmHg 82%

    Morgen, 15 August, Mittwoch

    Zeit Temperatur Niederschläge Wind Luftdruck Luftfeuchtigkeit
    00:00 +20°C° 0 mm 2 m/S 749 mmHg 82%
    01:00 +19°C° 0 mm 2 m/S 749 mmHg 82%
    02:00 +19°C° 0 mm 2 m/S 749 mmHg 82%
    03:00 +19°C° 0 mm 2 m/S 749 mmHg 83%
    04:00 +18°C° 0 mm 2 m/S 749 mmHg 83%
    05:00 +19°C° 0 mm 3 m/S 750 mmHg 80%
    06:00 +20°C° 0 mm 3 m/S 750 mmHg 76%
    07:00 +21°C° 0 mm 3 m/S 750 mmHg 73%
    08:00 +23°C° 0 mm 4 m/S 751 mmHg 67%
    09:00 +25°C° 0 mm 4 m/S 751 mmHg 62%
    10:00 +26°C° 0 mm 4 m/S 751 mmHg 57%
    11:00 +27°C° 0,3 mm 4 m/S 751 mmHg 56%
    12:00 +27°C° 0,3 mm 4 m/S 751 mmHg 55%
    13:00 +28°C° 0,3 mm 4 m/S 751 mmHg 53%
    14:00 +27°C° 0,7 mm 4 m/S 751 mmHg 56%
    15:00 +27°C° 0,7 mm 4 m/S 751 mmHg 58%
    16:00 +26°C° 0,7 mm 4 m/S 751 mmHg 61%
    17:00 +25°C° 0,2 mm 3 m/S 751 mmHg 66%
    18:00 +24°C° 0,2 mm 3 m/S 752 mmHg 71%
    19:00 +21°C° 0,2 mm 2 m/S 752 mmHg 76%
    20:00 +21°C° 0 mm 2 m/S 752 mmHg 78%
    21:00 +20°C° 0 mm 2 m/S 753 mmHg 81%
    22:00 +19°C° 0 mm 2 m/S 753 mmHg 83%
    23:00 +19°C° 0 mm 2 m/S 753 mmHg 85%

    übermorgen, 16 August, Donnerstag

    Zeit Temperatur Niederschläge Wind Luftdruck Luftfeuchtigkeit
    00:00 +18°C° 0 mm 2 m/S 753 mmHg 87%
    01:00 +18°C° 0 mm 2 m/S 754 mmHg 89%
    02:00 +17°C° 0 mm 2 m/S 754 mmHg 91%
    03:00 +17°C° 0 mm 2 m/S 754 mmHg 92%
    04:00 +17°C° 0 mm 2 m/S 754 mmHg 94%
    05:00 +18°C° 0 mm 2 m/S 754 mmHg 89%
    06:00 +19°C° 0 mm 2 m/S 754 mmHg 84%
    07:00 +20°C° 0 mm 2 m/S 755 mmHg 78%
    08:00 +21°C° 0 mm 2 m/S 755 mmHg 71%
    09:00 +23°C° 0 mm 2 m/S 755 mmHg 63%
    10:00 +25°C° 0 mm 2 m/S 755 mmHg 56%
    11:00 +25°C° 0 mm 2 m/S 754 mmHg 52%
    12:00 +26°C° 0 mm 2 m/S 754 mmHg 48%
    13:00 +27°C° 0 mm 2 m/S 754 mmHg 44%
    14:00 +27°C° 0 mm 2 m/S 754 mmHg 44%
    15:00 +27°C° 0 mm 2 m/S 754 mmHg 44%
    16:00 +27°C° 0 mm 2 m/S 753 mmHg 44%
    17:00 +25°C° 0 mm 2 m/S 754 mmHg 50%
    18:00 +24°C° 0 mm 2 m/S 754 mmHg 57%
    19:00 +21°C° 0 mm 2 m/S 754 mmHg 63%
    20:00 +20°C° 0 mm 2 m/S 754 mmHg 67%
    21:00 +19°C° 0 mm 2 m/S 754 mmHg 71%
    22:00 +19°C° 0 mm 1 m/S 754 mmHg 75%
    23:00 +19°C° 0 mm 1 m/S 754 mmHg 77%

    17 August, Freitag

    Zeit Temperatur Niederschläge Wind Luftdruck Luftfeuchtigkeit
    00:00 +19°C° 0 mm 1 m/S 754 mmHg 79%
    01:00 +18°C° 0 mm 1 m/S 754 mmHg 82%
    02:00 +18°C° 0 mm 1 m/S 754 mmHg 83%
    03:00 +16°C° 0 mm 1 m/S 754 mmHg 85%
    04:00 +16°C° 0 mm 1 m/S 754 mmHg 87%
    05:00 +19°C° 0 mm 1 m/S 754 mmHg 82%
    06:00 +20°C° 0 mm 1 m/S 754 mmHg 77%
    07:00 +21°C° 0 mm 1 m/S 754 mmHg 72%
    08:00 +23°C° 0 mm 2 m/S 754 mmHg 66%
    09:00 +24°C° 0 mm 2 m/S 754 mmHg 61%
    10:00 +26°C° 0 mm 2 m/S 754 mmHg 55%
    11:00 +26°C° 0 mm 2 m/S 753 mmHg 52%
    12:00 +27°C° 0 mm 2 m/S 753 mmHg 49%
    13:00 +28°C° 0 mm 1 m/S 753 mmHg 45%
    14:00 +28°C° 0 mm 1 m/S 753 mmHg 45%
    15:00 +28°C° 0 mm 1 m/S 753 mmHg 44%
    16:00 +28°C° 0 mm 1 m/S 752 mmHg 44%
    17:00 +27°C° 0 mm 1 m/S 752 mmHg 49%
    18:00 +25°C° 0 mm 1 m/S 753 mmHg 55%
    19:00 +23°C° 0 mm 1 m/S 753 mmHg 61%
    20:00 +22°C° 0 mm 1 m/S 753 mmHg 63%
    21:00 +21°C° 0 mm 1 m/S 753 mmHg 66%
    22:00 +21°C° 0 mm 1 m/S 753 mmHg 69%
    23:00 +20°C° 0 mm 1 m/S 753 mmHg 71%

    18 August, Samstag

    Zeit Temperatur Niederschläge Wind Luftdruck Luftfeuchtigkeit
    00:00 +20°C° 0 mm 1 m/S 753 mmHg 73%
    01:00 +19°C° 0 mm 1 m/S 753 mmHg 74%
    02:00 +19°C° 0 mm 1 m/S 753 mmHg 76%
    03:00 +19°C° 0 mm 1 m/S 753 mmHg 78%
    04:00 +19°C° 0 mm 1 m/S 753 mmHg 79%
    05:00 +20°C° 0 mm 1 m/S 753 mmHg 75%
    06:00 +20°C° 0 mm 0 m/S 754 mmHg 70%
    07:00 +21°C° 0 mm 0 m/S 754 mmHg 65%
    08:00 +25°C° 0 mm 1 m/S 754 mmHg 61%
    09:00 +26°C° 0 mm 1 m/S 754 mmHg 56%
    10:00 +28°C° 0 mm 1 m/S 754 mmHg 51%
    11:00 +28°C° 0 mm 1 m/S 754 mmHg 48%
    12:00 +29°C° 0 mm 1 m/S 754 mmHg 46%
    13:00 +29°C° 0 mm 2 m/S 753 mmHg 43%
    14:00 +29°C° 0 mm 1 m/S 753 mmHg 43%
    15:00 +29°C° 0 mm 1 m/S 753 mmHg 44%
    16:00 +29°C° 0 mm 1 m/S 753 mmHg 44%
    17:00 +28°C° 0 mm 1 m/S 753 mmHg 48%
    18:00 +27°C° 0 mm 1 m/S 753 mmHg 52%
    19:00 +25°C° 0 mm 1 m/S 754 mmHg 56%
    20:00 +24°C° 0,3 mm 1 m/S 754 mmHg 64%
    21:00 +23°C° 0,3 mm 2 m/S 754 mmHg 71%
    22:00 +21°C° 0,3 mm 2 m/S 754 mmHg 78%
    23:00 +20°C° 0 mm 2 m/S 755 mmHg 82%

    19 August, Sonntag

    Zeit Temperatur Niederschläge Wind Luftdruck Luftfeuchtigkeit
    00:00 +19°C° 0 mm 2 m/S 755 mmHg 86%
    01:00 +19°C° 0 mm 2 m/S 755 mmHg 90%
    02:00 +18°C° 0 mm 2 m/S 755 mmHg 91%
    03:00 +18°C° 0 mm 2 m/S 755 mmHg 93%
    04:00 +17°C° 0 mm 2 m/S 755 mmHg 94%
    05:00 +18°C° 0 mm 2 m/S 755 mmHg 89%
    06:00 +19°C° 0 mm 2 m/S 756 mmHg 83%
    07:00 +21°C° 0 mm 1 m/S 756 mmHg 77%
    08:00 +23°C° 0 mm 2 m/S 756 mmHg 68%
    09:00 +25°C° 0 mm 2 m/S 756 mmHg 60%
    10:00 +26°C° 0 mm 2 m/S 756 mmHg 51%
    11:00 +27°C° 0 mm 2 m/S 756 mmHg 48%
    12:00 +28°C° 0 mm 2 m/S 755 mmHg 45%
    13:00 +28°C° 0 mm 2 m/S 755 mmHg 42%
    14:00 +28°C° 0 mm 2 m/S 755 mmHg 42%
    15:00 +28°C° 0 mm 2 m/S 755 mmHg 43%
    16:00 +28°C° 0 mm 2 m/S 754 mmHg 43%
    17:00 +27°C° 0 mm 2 m/S 754 mmHg 48%
    18:00 +25°C° 0 mm 1 m/S 754 mmHg 53%
    19:00 +23°C° 0 mm 1 m/S 754 mmHg 57%
    20:00 +23°C° 0 mm 1 m/S 755 mmHg 59%
    21:00 +22°C° 0 mm 1 m/S 755 mmHg 60%
    22:00 +22°C° 0 mm 1 m/S 755 mmHg 61%
    23:00 +20°C° 0 mm 2 m/S 755 mmHg 63%
    Mehr zeigen